SL-14 DEB, 45269

Orbit data source: Space-Track

SL-14 DEB, 45269 is space debris in LEO originally from a launch on Thu, 15 Aug 1991 UTC launched from the Plesetsk Missile And Space Complex (PKMTR). Debris objects in space refer to the collection of defunct objects orbiting the Earth. Examples of debris include non-operational satellites, rocket bodies, and fragments generated from explosions, collisions, or faulty payload assembly.

Loading next visibility...
Identifier
45269, 1991-056F
Orbit
LEO
Country
Flag of CISCIS
Related business
Manufacturer
Unknown
Mission
Spacecraft
Bus & Motor
Unknown
Mass
Unknown
Launch date (UTC)
1991-08-15 (35 years ago)
Launch vehicle
Unknown
Launch site
Plesetsk Missile And Space Complex (PKMTR)
Object type
Payload
Rocket body
Debris
Shape & HBR
Unknown shape, 0.4 m
Radar Cross Section
Medium (>0.1 m² and <1 m²)

Expand to show TLE details & history
Last TLE update: 22 hours ago

TLE from 22 hours ago
0 SL-14 DEB
1 45269U 91056F   26127.56617724  .00000046  00000-0  83099-4 0  9996
2 45269  82.5749 162.4439 0027428 163.2823 196.9212 13.20596211300340
Epoch: 2026-05-07T13:35Z
TLE epoch observation values (Epoch: 2026-05-07T13:35:17.713Z)
Latitude
-0.00002°
Longitude
93.20961°
Altitude
1,205.104 km
Speed
7.242 km/s
True Right ascension
10h 49m 46s
True Declination
0° 00' 00"
Sunlit
Object was in daylight at epoch
Visualization orbit readout
Latitude
Unknown
Longitude
Unknown
Altitude
Unknown
Speed
Unknown
Apparent Right ascension
Unknown
Apparent Declination
Unknown
Sunlit
N/A
Visualization observer readout
Local Sidereal Time
19:45:41
Azimuth
Unknown
Elevation
Unknown
Doppler factor
Unknown
Orbital elements
Apogee altitude
1,200.412 km
Perigee altitude
1,158.953 km
Semi-major axis
7,557.819 km
Eccentricity
0.00274
Inclination
82.5749°
RAAN
162.4439°
Arg. of periapsis
163.2823°
True anomaly
196.83002°
Mean anomaly
196.9212°
Eccentric anomaly
196.87558°
Mean motion
3.3033 °/min
Orbital period
108.98 mins
BSTAR
0.000083099
Loading maneuver chart data...
Computing Atmospheric mass density...
Loading historical data...
Loading historical data...
Loading historical data...
Loading historical data...
Loading historical data...
Loading historical data...
Loading historical data...

Documentation

Showing up to 5 results
|